Regional Weather Roundup
Issued by NWS

Home | Current Version | Previous Version | Text Only | Print | Product List | Glossary On
Versions: 1 2 3 4 5 6 7 8 9 10 11 12 13 14 15 16 17 18 19 20 21 22 23 24 25 26 27 28 29 30 31 32 33 34 35 36 37 38 39 40 41 42 43 44 45 46 47 48 49 50
000
ASUS43 KBIS 301610
RWRND

NORTH DAKOTA REGIONAL WEATHER ROUNDUP
NATIONAL WEATHER SERVICE BISMARCK ND
1100 AM CDT SUN AUG 30 2015

NOTE: "FAIR" INDICATES FEW OR NO CLOUDS BELOW 12,000 FEET WITH NO
SIGNIFICANT WEATHER AND/OR OBSTRUCTIONS TO VISIBILITY.


NDZ001>003-009>011-017-301700-
NORTHWEST NORTH DAKOTA

CITY           SKY/WX    TMP DP  RH WIND       PRES   REMARKS
WILLISTON      PTSUNNY   80  52  37 S8        29.66
MINOT          MOSUNNY   83  57  41 S9        29.64
MINOT AFB      PTSUNNY   84  59  42 S8        29.63F
$$

NDZ018>021-031>035-040>046-301700-
SOUTHWEST NORTH DAKOTA

CITY           SKY/WX    TMP DP  RH WIND       PRES   REMARKS
BISMARCK       MOSUNNY   81  60  48 S12       29.72
DICKINSON      CLOUDY    83  46  27 S15       29.71
GARRISON         N/A     78  58  49 S9        29.69S
HETTINGER ARPT CLOUDY    79  50  36 S6        29.76S
$$

NDZ004>008-012>016-024-026-027-054-301700-
NORTHEAST NORTH DAKOTA

CITY           SKY/WX    TMP DP  RH WIND       PRES   REMARKS
GRAND FORKS    MOSUNNY   73  65  75 S14       29.76
GRND FRKS AFB  MOSUNNY   72  66  81 S14       29.76F
DEVILS LAKE    MOSUNNY   77  63  61 S13       29.72S
$$

NDZ022-023-025-028>030-036>039-047>053-301700-
SOUTHEAST NORTH DAKOTA

CITY           SKY/WX    TMP DP  RH WIND       PRES   REMARKS
FARGO          SUNNY     74  64  71 S14G24    29.82S
JAMESTOWN      SUNNY     75  65  70 S14       29.77F
$$



USA.gov is the U.S. government's official web portal to all federal, state and local government web resources and services.